EW3197 Weather Reports


time (UTC)temp
C
wind
direction
speed
KPH
gust
KPH
rain 1hr
cm
rain 24hr
cm
rain mn
cm
humidity
%
barometer
mb
20191024024704 3 216 0.0 0.0 0.00 0.64 0.56 93 1020.0
20191024024205 3 216 0.0 0.0 0.00 0.64 0.56 93 1020.0
20191024023704 3 216 0.0 0.0 0.00 0.64 0.56 93 1019.9
20191024023204 3 216 0.0 0.0 0.00 0.64 0.56 93 1019.8
20191024022704 3 216 0.0 0.0 0.00 0.64 0.56 92 1019.7
20191024022204 4 216 0.0 0.0 0.00 0.66 0.56 92 1019.6
20191024021704 4 216 0.0 0.0 0.00 0.69 0.56 92 1019.6
20191024021203 4 216 0.0 0.0 0.00 0.69 0.56 92 1019.4
20191024020703 4 216 0.0 0.0 0.00 0.71 0.56 92 1019.3
20191024020204 4 216 0.0 0.0 0.00 0.71 0.56 92 1019.3
20191024015704 4 216 0.0 0.0 0.00 0.74 0.56 92 1019.2
20191024015203 4 216 0.0 0.0 0.00 0.76 0.56 92 1019.1
20191024014703 5 216 0.0 0.0 0.00 0.76 0.56 91 1019.0
20191024014204 5 216 0.0 0.0 0.00 0.79 0.56 91 1018.9
20191024013704 5 216 0.0 0.0 0.00 0.81 0.56 91 1018.8
20191024013204 5 216 0.0 0.0 0.00 0.81 0.56 91 1018.7
20191024012703 5 216 0.0 0.0 0.00 0.84 0.56 90 1018.6
20191024012204 5 216 0.0 0.0 0.00 0.86 0.56 91 1018.6
20191024011703 5 216 0.0 0.0 0.00 0.89 0.56 91 1018.6
20191024011204 5 216 0.0 0.0 0.00 0.91 0.56 91 1018.6
20191024010704 5 216 0.0 0.0 0.00 0.94 0.56 90 1018.4
20191024010204 5 216 0.0 0.0 0.00 0.99 0.56 89 1018.4
20191024005704 5 216 0.0 0.0 0.00 0.99 0.56 88 1018.4
20191024005204 6 216 0.0 0.0 0.00 1.04 0.56 88 1018.4
20191024004704 6 216 0.0 0.0 0.00 1.04 0.56 87 1018.3
20191024004204 6 216 0.0 0.0 0.00 1.07 0.56 88 1018.1
20191024003705 6 216 0.0 0.0 0.00 1.07 0.56 88 1018.0
20191024003203 6 216 0.0 0.0 0.00 1.07 0.56 88 1017.8
20191024002704 6 216 0.0 0.0 0.00 1.09 0.56 87 1017.8
20191024002204 6 216 0.0 0.0 0.00 1.09 0.56 87 1017.6
20191024001704 6 216 0.0 0.0 0.00 1.09 0.56 87 1017.5
20191024001203 6 216 0.0 0.0 0.00 1.09 0.56 86 1017.5
20191024000703 7 216 0.0 1.6 0.00 1.09 0.56 85 1017.5
20191024000203 7 216 0.0 1.6 0.00 1.09 0.56 85 1017.4
20191023235704 7 216 0.0 1.6 0.00 1.09 0.56 84 1017.3
20191023235204 7 216 0.0 1.6 0.00 1.09 0.56 84 1017.2
20191023234703 7 216 0.0 1.6 0.00 1.09 0.56 83 1017.2
20191023234204 7 216 0.0 1.6 0.00 1.09 0.56 84 1017.2
20191023233704 7 216 1.6 3.2 0.00 1.09 0.56 82 1017.1
20191023233204 7 216 0.0 1.6 0.00 1.09 0.56 83 1016.9
20191023232704 7 216 0.0 1.6 0.00 1.09 0.56 82 1016.7
20191023232204 8 216 0.0 3.2 0.00 1.09 0.56 82 1016.6
20191023231703 8 216 1.6 3.2 0.00 1.09 0.56 82 1016.5
20191023231204 8 216 0.0 4.8 0.00 1.09 0.56 81 1016.4
20191023230704 8 291 0.0 1.6 0.00 1.09 0.56 80 1016.2
20191023230204 8 292 0.0 1.6 0.00 1.09 0.56 78 1016.1
20191023225704 9 292 0.0 3.2 0.00 1.09 0.56 76 1016.1
20191023225203 9 280 0.0 1.6 0.00 1.09 0.56 75 1016.0
20191023224703 9 280 0.0 3.2 0.00 1.09 0.56 74 1015.8
20191023224203 10 280 0.0 1.6 0.00 1.09 0.56 71 1015.8
20191023223703 10 280 0.0 0.0 0.00 1.09 0.56 68 1015.8
20191023223203 10 280 0.0 0.0 0.00 1.09 0.56 64 1015.7
20191023222703 11 280 0.0 0.0 0.00 1.09 0.56 63 1015.7
20191023222204 12 280 0.0 1.6 0.00 1.09 0.56 61 1015.6
20191023221703 12 280 0.0 0.0 0.00 1.09 0.56 56 1015.5
20191023221204 12 280 0.0 1.6 0.00 1.09 0.56 52 1015.3
20191023220704 13 280 0.0 1.6 0.00 1.09 0.56 51 1015.2
20191023220204 13 278 0.0 1.6 0.00 1.09 0.56 50 1015.1
20191023215704 13 316 0.0 4.8 0.00 1.09 0.56 49 1015.0
20191023215204 13 310 1.6 9.7 0.00 1.09 0.56 49 1014.8
20191023214704 14 282 1.6 4.8 0.00 1.09 0.56 48 1014.7
20191023214204 14 319 1.6 4.8 0.00 1.09 0.56 47 1014.7
20191023213704 14 312 1.6 8.0 0.00 1.09 0.56 47 1014.5
20191023213204 15 342 1.6 8.0 0.00 1.09 0.56 45 1014.4
20191023212704 15 316 1.6 11.3 0.00 1.09 0.56 45 1014.3
20191023212204 15 308 1.6 9.7 0.00 1.09 0.56 44 1014.1
20191023211704 15 351 3.2 4.8 0.00 1.09 0.56 45 1014.0
20191023211204 15 270 3.2 11.3 0.00 1.09 0.56 43 1013.9
20191023210704 15 245 1.6 4.8 0.00 1.09 0.56 44 1013.8
20191023210204 16 273 1.6 4.8 0.00 1.09 0.56 45 1013.7
20191023205704 16 337 3.2 9.7 0.00 1.09 0.56 43 1013.5
20191023205205 16 305 1.6 8.0 0.00 1.09 0.56 44 1013.4
20191023204704 16 321 3.2 12.9 0.00 1.09 0.56 41 1013.3
20191023204204 16 276 3.2 8.0 0.00 1.09 0.56 42 1013.3
20191023203704 16 312 1.6 8.0 0.00 1.09 0.56 43 1013.2
20191023203204 16 314 3.2 4.8 0.00 1.09 0.56 41 1013.2
20191023202704 17 322 3.2 12.9 0.00 1.09 0.56 42 1013.2
20191023202204 17 270 3.2 11.3 0.00 1.09 0.56 38 1013.2
20191023201704 17 322 3.2 16.1 0.00 1.09 0.56 41 1013.2
20191023201204 17 271 3.2 4.8 0.00 1.09 0.56 39 1013.2
20191023200704 17 229 1.6 8.0 0.00 1.09 0.56 41 1013.1
20191023200203 17 261 1.6 16.1 0.00 1.09 0.56 39 1013.0
20191023195703 17 324 6.4 19.3 0.00 1.09 0.56 40 1013.0
20191023194704 17 327 6.4 19.3 0.00 1.09 0.56 38 1012.8
20191023193704 17 302 4.8 14.5 0.00 1.09 0.56 39 1012.8
20191023193204 17 237 4.8 14.5 0.00 1.09 0.56 39 1012.7
20191023192704 17 355 6.4 19.3 0.00 1.09 0.56 39 1012.7
20191023192205 17 279 3.2 9.7 0.00 1.09 0.56 40 1012.7
20191023191204 17 307 3.2 19.3 0.00 1.09 0.56 43 1012.8
20191023190704 17 252 6.4 22.5 0.00 1.09 0.56 39 1012.8
20191023190204 17 256 3.2 19.3 0.00 1.09 0.56 41 1012.9
20191023185704 17 285 4.8 19.3 0.00 1.09 0.56 38 1012.9
20191023185203 17 281 3.2 12.9 0.00 1.09 0.56 42 1012.7
20191023184703 17 307 1.6 14.5 0.00 1.09 0.56 40 1012.5
20191023184203 17 328 3.2 12.9 0.00 1.09 0.56 40 1012.4
20191023183703 17 244 3.2 12.9 0.00 1.09 0.56 43 1012.4
20191023183203 17 301 4.8 22.5 0.00 1.09 0.56 41 1012.5
20191023182704 17 245 4.8 16.1 0.00 1.09 0.56 43 1012.4
20191023182204 17 337 4.8 20.9 0.00 1.09 0.56 43 1012.3
20191023181704 17 242 8.0 19.3 0.00 1.09 0.56 42 1012.3
20191023181204 17 256 8.0 19.3 0.00 1.09 0.56 43 1012.2
20191023180704 17 228 4.8 14.5 0.00 1.09 0.56 44 1012.1
20191023180204 17 150 8.0 22.5 0.00 1.09 0.56 45 1012.1
20191023175704 17 307 8.0 19.3 0.00 1.09 0.56 47 1012.0
20191023175203 17 285 3.2 29.0 0.00 1.09 0.56 50 1012.1
20191023174703 17 302 4.8 14.5 0.00 1.09 0.56 49 1012.2
20191023174204 16 241 3.2 8.0 0.00 1.09 0.56 49 1012.2
20191023173704 16 4 4.8 12.9 0.00 1.09 0.56 52 1012.1
20191023173203 16 313 4.8 12.9 0.00 1.09 0.56 57 1012.2
20191023172703 16 2 6.4 19.3 0.00 1.09 0.56 58 1012.1
20191023172204 16 340 8.0 19.3 0.00 1.09 0.56 58 1012.0
20191023171703 16 285 8.0 20.9 0.00 1.09 0.56 58 1012.1
20191023171204 16 342 4.8 14.5 0.00 1.09 0.56 60 1011.9
20191023170703 16 299 1.6 8.0 0.00 1.09 0.56 59 1011.9
20191023170204 16 291 3.2 14.5 0.00 1.09 0.56 60 1012.1
20191023165703 16 7 3.2 19.3 0.00 1.09 0.56 60 1012.1
20191023165203 16 322 6.4 19.3 0.00 1.09 0.56 61 1011.9
20191023164704 16 327 8.0 19.3 0.00 1.09 0.56 62 1011.9
20191023164204 16 282 4.8 19.3 0.00 1.09 0.56 62 1012.0
20191023163704 16 235 4.8 19.3 0.00 1.09 0.56 61 1012.1
20191023163203 15 249 6.4 19.3 0.00 1.09 0.56 61 1011.9
20191023162703 15 249 3.2 9.7 0.00 1.09 0.56 63 1012.1
20191023162204 15 263 4.8 19.3 0.00 1.09 0.56 66 1012.2
20191023161704 15 249 4.8 20.9 0.00 1.09 0.56 61 1012.4
20191023161204 15 309 9.7 19.3 0.00 1.09 0.56 61 1012.4
20191023160704 15 273 4.8 19.3 0.00 1.09 0.56 61 1012.3
20191023160204 15 288 3.2 4.8 0.00 1.09 0.56 64 1012.3
20191023155704 15 316 4.8 16.1 0.00 1.09 0.56 63 1012.2
20191023155203 15 259 3.2 19.3 0.00 1.09 0.56 66 1012.3
20191023154705 15 288 6.4 19.3 0.00 1.09 0.56 65 1012.3
20191023154204 14 235 3.2 11.3 0.00 1.09 0.56 69 1012.2
20191023153704 14 303 3.2 9.7 0.00 1.09 0.56 68 1012.1
20191023153203 14 238 4.8 14.5 0.00 1.09 0.56 70 1012.1
20191023152705 14 333 4.8 19.3 0.00 1.09 0.56 73 1012.2
20191023152204 14 250 1.6 16.1 0.00 1.09 0.56 74 1012.1
20191023151704 14 229 4.8 14.5 0.00 1.09 0.56 76 1012.2
20191023151204 13 334 4.8 22.5 0.00 1.09 0.56 76 1012.1
20191023150704 13 320 4.8 20.9 0.00 1.09 0.56 79 1012.1
20191023150204 13 3 4.8 16.1 0.00 1.09 0.56 80 1011.9
20191023145704 13 320 3.2 19.3 0.00 1.09 0.56 81 1011.9
20191023145204 13 307 3.2 16.1 0.00 1.09 0.56 80 1011.9
20191023144704 13 324 4.8 19.3 0.00 1.09 0.56 81 1012.0
20191023144204 13 305 8.0 19.3 0.00 1.09 0.56 81 1012.0
20191023143703 13 132 3.2 12.9 0.00 1.09 0.56 82 1012.0
20191023143204 13 319 4.8 16.1 0.00 1.09 0.56 82 1012.0
20191023142704 13 344 3.2 16.1 0.00 1.09 0.56 84 1012.1
20191023142203 13 326 4.8 19.3 0.00 1.09 0.56 85 1012.1
20191023141703 13 2 4.8 16.1 0.00 1.09 0.56 85 1012.0
20191023141204 13 304 9.7 19.3 0.00 1.09 0.56 86 1011.9
20191023140703 12 326 6.4 20.9 0.00 1.09 0.56 89 1011.8
20191023140204 12 318 8.0 22.5 0.00 1.09 0.56 91 1011.8
20191023135704 12 307 6.4 22.5 0.00 1.09 0.56 95 1011.8
20191023135205 11 281 4.8 11.3 0.00 1.09 0.56 97 1011.6
20191023134705 11 286 4.8 16.1 0.00 1.09 0.56 97 1011.5
20191023134204 11 328 1.6 12.9 0.00 1.09 0.56 97 1011.2
20191023133704 11 327 3.2 8.0 0.00 1.09 0.56 97 1011.1
20191023133203 11 289 0.0 0.0 0.00 1.09 0.56 97 1011.1
20191023132704 11 304 0.0 0.0 0.00 1.09 0.56 97 1010.9
20191023132204 11 304 1.6 8.0 0.00 1.09 0.56 97 1010.9
20191023131704 11 330 1.6 3.2 0.00 1.09 0.56 97 1011.0
20191023131203 10 340 0.0 1.6 0.00 1.09 0.56 97 1010.9
20191023130704 10 340 1.6 3.2 0.00 1.09 0.56 97 1010.8
20191023130204 10 200 0.0 1.6 0.00 1.09 0.56 97 1010.7
20191023125704 10 82 0.0 0.0 0.00 1.09 0.56 97 1010.6
20191023125204 10 83 0.0 0.0 0.00 1.09 0.56 96 1010.6
20191023124704 10 244 0.0 0.0 0.00 1.09 0.56 96 1010.7
20191023124204 9 244 0.0 0.0 0.00 1.09 0.56 96 1010.6
20191023123703 9 244 0.0 0.0 0.00 1.09 0.56 96 1010.6
20191023123204 9 54 0.0 0.0 0.00 1.09 0.56 95 1010.5
20191023122704 9 64 0.0 0.0 0.00 1.09 0.56 94 1010.2
20191023122204 9 62 0.0 0.0 0.00 1.09 0.56 93 1010.4
20191023121704 9 62 0.0 0.0 0.00 1.09 0.56 93 1010.4
20191023121203 9 62 0.0 0.0 0.00 1.09 0.56 93 1010.2
20191023120703 9 62 0.0 0.0 0.00 1.09 0.56 93 1010.2
20191023120204 9 62 0.0 0.0 0.00 1.09 0.56 93 1010.1
20191023115704 10 62 0.0 0.0 0.00 1.09 0.56 92 1010.0
20191023115203 10 62 0.0 0.0 0.00 1.09 0.56 92 1010.1
20191023114705 10 62 0.0 0.0 0.00 1.09 0.56 92 1010.0
20191023114203 10 62 0.0 0.0 0.00 1.09 0.56 92 1009.9
20191023113703 10 62 0.0 0.0 0.00 1.09 0.56 92 1009.8
20191023113205 10 62 0.0 0.0 0.00 1.09 0.56 93 1009.8
20191023112704 10 62 0.0 0.0 0.00 1.09 0.56 92 1009.7
20191023112203 10 62 0.0 0.0 0.00 1.09 0.56 93 1009.6
20191023111703 11 62 0.0 0.0 0.00 1.09 0.56 93 1009.6
20191023111204 11 62 0.0 0.0 0.00 1.09 0.56 93 1009.6
20191023110704 11 62 0.0 0.0 0.00 1.09 0.56 93 1009.4
20191023110204 11 62 0.0 0.0 0.00 1.09 0.56 94 1009.4
20191023105704 11 62 0.0 0.0 0.00 1.09 0.56 94 1009.3
20191023105203 11 62 0.0 0.0 0.00 1.09 0.56 94 1009.4
20191023104703 11 62 0.0 0.0 0.00 1.09 0.56 94 1009.2
20191023104203 11 62 0.0 0.0 0.00 1.09 0.56 94 1009.2
20191023103703 11 62 0.0 0.0 0.00 1.09 0.56 95 1009.2
20191023103204 11 62 0.0 0.0 0.00 1.09 0.56 95 1009.2
20191023102704 11 62 0.0 0.0 0.00 1.09 0.56 95 1009.2
20191023102204 11 62 0.0 0.0 0.00 1.09 0.56 95 1009.2
20191023101704 11 62 0.0 0.0 0.00 1.09 0.56 95 1009.1
20191023101204 12 62 0.0 0.0 0.00 1.09 0.56 95 1009.1
20191023100704 12 62 0.0 0.0 0.00 1.09 0.56 95 1009.1
20191023100204 12 62 0.0 0.0 0.00 1.09 0.56 95 1009.1
20191023095704 12 62 0.0 0.0 0.03 1.09 0.56 95 1009.1
20191023095204 12 62 0.0 0.0 0.03 1.09 0.56 95 1009.0
20191023094703 12 62 0.0 0.0 0.03 1.09 0.56 95 1009.0
20191023094204 12 62 0.0 0.0 0.03 1.09 0.56 95 1009.1
20191023093704 12 62 0.0 0.0 0.03 1.09 0.56 95 1009.2
20191023093204 12 62 0.0 0.0 0.03 1.09 0.56 95 1009.3
20191023092704 12 62 0.0 0.0 0.03 1.09 0.56 95 1009.1
20191023092204 12 65 0.0 0.0 0.03 1.09 0.56 95 1009.2
20191023091703 12 65 0.0 1.6 0.03 1.09 0.56 95 1009.2
20191023091204 12 65 0.0 0.0 0.03 1.09 0.56 95 1009.1
20191023090704 12 65 1.6 4.8 0.03 1.09 0.56 95 1009.1
20191023090204 12 314 0.0 1.6 0.03 1.09 0.56 95 1009.1
20191023085704 12 314 1.6 4.8 0.00 1.07 0.53 95 1009.2
20191023085204 12 57 0.0 1.6 0.03 1.07 0.53 95 1009.1
20191023084704 12 57 1.6 3.2 0.03 1.07 0.53 95 1009.1
20191023084204 12 97 1.6 8.0 0.03 1.07 0.53 95 1009.1
20191023083704 12 328 1.6 8.0 0.05 1.07 0.53 95 1009.1
20191023083203 12 14 0.0 4.8 0.05 1.07 0.53 95 1009.4
20191023082704 12 110 0.0 4.8 0.05 1.07 0.53 95 1009.3
20191023082204 12 0 1.6 4.8 0.05 1.07 0.53 95 1009.2
20191023081704 12 49 3.2 4.8 0.08 1.07 0.53 95 1009.4
20191023081205 12 38 4.8 14.5 0.08 1.07 0.53 95 1009.4
20191023080704 12 0 4.8 14.5 0.10 1.07 0.53 96 1009.3
20191023080204 12 333 4.8 16.1 0.10 1.07 0.53 96 1009.1
20191023075704 12 311 4.8 12.9 0.13 1.07 0.53 96 1009.0
20191023075205 12 238 0.0 0.0 0.13 1.04 0.51 96 1008.9
20191023074703 12 238 0.0 0.0 0.13 1.04 0.51 96 1008.6
20191023074204 12 238 0.0 0.0 0.13 1.04 0.51 96 1009.0
20191023073704 12 238 0.0 0.0 0.13 1.02 0.48 96 1009.0
20191023073204 12 238 0.0 0.0 0.15 1.02 0.48 96 1009.0
20191023072703 12 238 0.0 0.0 0.15 1.02 0.48 96 1009.0
20191023072204 12 238 0.0 0.0 0.15 1.02 0.48 96 1009.1
20191023071704 12 238 0.0 0.0 0.15 0.99 0.46 96 1009.0
20191023071204 12 238 0.0 0.0 0.18 0.99 0.46 96 1009.1
20191023070704 12 238 0.0 0.0 0.18 0.97 0.43 96 1009.1
20191023070204 12 238 0.0 0.0 0.20 0.97 0.43 96 1009.2
20191023065704 12 238 0.0 0.0 0.23 0.94 0.41 96 1009.2
20191023065204 12 238 0.0 0.0 0.20 0.91 0.38 96 1009.3
20191023064703 12 238 0.0 0.0 0.23 0.91 0.38 96 1009.2
20191023064204 12 238 0.0 0.0 0.23 0.91 0.38 96 1009.2
20191023063704 12 238 0.0 0.0 0.23 0.89 0.36 96 1009.2
20191023063204 12 238 0.0 0.0 0.20 0.86 0.33 96 1009.2
20191023062704 12 238 0.0 0.0 0.23 0.86 0.33 96 1009.2
20191023062204 12 238 0.0 0.0 0.23 0.86 0.33 96 1009.3
20191023061703 12 238 0.0 0.0 0.20 0.84 0.30 96 1009.2
20191023061203 12 238 0.0 0.0 0.20 0.81 0.28 96 1009.2
20191023060704 12 238 0.0 0.0 0.20 0.79 0.25 96 1009.2
20191023060203 12 238 0.0 0.0 0.18 0.76 0.23 96 1009.2
20191023055704 12 238 0.0 1.6 0.13 0.71 0.18 96 1009.1
20191023055204 12 237 1.6 4.8 0.13 0.71 0.18 96 1009.1
20191023054704 12 222 0.0 0.0 0.13 0.69 0.15 96 1009.0
20191023054204 12 222 0.0 0.0 0.13 0.69 0.15 96 1008.6
20191023053704 12 143 0.0 0.0 0.13 0.66 0.13 96 1008.4
20191023053204 12 143 0.0 1.6 0.13 0.66 0.13 96 1008.4
20191023052703 12 143 0.0 4.8 0.10 0.64 0.10 95 1008.5
20191023052204 12 240 3.2 4.8 0.10 0.64 0.10 95 1008.6
20191023051703 12 244 1.6 4.8 0.10 0.64 0.10 95 1008.6
20191023051206 12 195 1.6 8.0 0.08 0.61 0.08 95 1008.6
20191023050703 12 200 1.6 3.2 0.05 0.58 0.05 95 1008.7
20191023050203 12 124 1.6 4.8 0.05 0.58 0.05 96 1008.8
20191023045704 12 127 1.6 4.8 0.05 0.58 0.05 96 1008.7
20191023045205 12 152 1.6 4.8 0.08 0.58 0.05 96 1008.8
20191023044704 12 152 3.2 8.0 0.05 0.56 0.03 96 1008.9
20191023044204 12 183 3.2 11.3 0.05 0.56 0.03 96 1009.0
20191023043703 12 208 1.6 4.8 0.03 0.53 0.00 96 1009.0
20191023043204 12 186 1.6 4.8 0.03 0.53 0.00 96 1009.0
20191023042704 12 186 1.6 4.8 0.03 0.53 0.00 95 1009.0
20191023042204 12 180 3.2 4.8 0.03 0.53 0.00 95 1009.1
20191023041704 12 100 1.6 3.2 0.03 0.53 0.00 95 1009.2
20191023041204 12 102 1.6 4.8 0.03 0.53 0.00 95 1009.3
20191023040704 12 162 1.6 4.8 0.03 0.53 0.00 95 1009.4
20191023040205 12 141 1.6 3.2 0.05 0.53 0.00 95 1009.4
20191023035704 12 108 1.6 8.0 0.05 0.53 0.53 95 1009.6
20191023035204 12 131 1.6 3.2 0.05 0.51 0.51 95 1009.8
20191023034704 12 139 1.6 3.2 0.05 0.51 0.51 95 1009.8
20191023034203 12 142 1.6 4.8 0.05 0.51 0.51 95 1009.9
20191023033703 12 133 0.0 3.2 0.05 0.51 0.51 95 1010.1
20191023033204 12 143 3.2 9.7 0.05 0.51 0.51 95 1010.2
20191023032704 12 73 0.0 3.2 0.05 0.51 0.51 95 1010.4
20191023032204 12 309 1.6 4.8 0.08 0.51 0.51 95 1010.5
20191023031704 12 170 0.0 3.2 0.10 0.51 0.51 95 1010.5
20191023031203 12 170 1.6 9.7 0.10 0.51 0.51 95 1010.7
20191023030703 12 165 0.0 4.8 0.13 0.51 0.51 95 1010.9
20191023030204 12 331 0.0 4.8 0.10 0.48 0.48 95 1010.9
20191023025703 12 180 1.6 4.8 0.13 0.48 0.48 95 1011.0
20191023025204 12 68 1.6 4.8 0.13 0.46 0.46 95 1011.0